Wind_Speed
17 17 17 17 17 17 17 17 16 15 14 13 12 11 10 9 9 8 8 8 8 9 9 10 12 13 14 15 15 16 17 17 18 19 19 20 22 22 22 21 19 17 14 13 13 13 14 14 14 13 12 12 12 12 13 14 16 18 19 19 20 20 21 21 21 22 22 24 25 25 25 24 23 22 22 22 22 23 23 24 25 25 25 25 25 25 25 25
19 18 18 18 18 18 18 18 18 17 16 15 14 13 12 11 10 9 9 9 8 8 9 10 11 12 13 14 15 16 17 17 17 18 18 19 20 21 22 21 20 17 15 13 12 12 13 14 14 15 14 14 14 13 13 14 15 16 17 17 17 19 20 20 21 21 22 23 24 24 24 23 22 21 22 22 22 23 24 25 25 24 24 25 25 25 25 26
21 20 20 20 20 20 20 20 20 19 18 17 16 15 14 13 12 10 10 10 9 9 9 10 11 12 13 14 15 16 16 17 17 17 18 18 19 21 22 21 21 19 16 15 13 13 12 13 14 15 15 15 15 15 14 14 15 15 16 16 16 17 19 20 21 21 22 23 24 24 23 23 23 22 22 22 23 23 23 23 23 23 24 24 24 24 25 26
23 22 22 22 21 21 21 21 21 21 20 19 18 17 16 14 14 12 11 11 11 10 10 10 11 12 13 14 15 16 16 17 17 17 17 18 18 20 22 22 21 20 18 16 15 14 14 14 14 15 15 16 16 17 17 17 17 17 18 17 16 16 18 19 20 21 22 23 23 23 23 24 24 23 22 22 22 21 21 21 22 22 23 23 23 24 25 26
24 24 24 23 23 23 23 23 23 22 22 21 20 19 17 16 15 14 13 13 12 12 11 11 11 12 13 14 15 16 17 17 17 17 17 17 18 19 21 22 21 20 19 17 16 15 15 15 15 16 16 17 17 18 18 19 19 20 20 20 19 18 18 19 20 21 22 22 23 23 23 23 23 22 22 22 21 21 21 21 21 21 22 23 24 25 26 26
26 26 26 25 25 25 25 24 24 24 23 23 22 21 19 18 17 16 15 14 14 13 13 12 12 12 13 14 15 16 16 17 17 17 17 17 18 18 21 21 21 21 19 18 17 16 15 16 16 16 17 17 18 18 19 19 20 21 21 22 22 21 21 21 21 22 23 23 23 22 22 22 22 22 21 22 22 21 21 21 21 21 22 24 25 26 26 25
27 27 27 27 27 26 26 26 26 26 25 25 24 22 21 20 18 17 17 17 16 15 14 14 14 13 13 14 15 16 17 17 17 18 17 18 18 18 20 21 21 21 19 19 18 17 17 17 17 17 17 17 17 18 18 18 19 20 21 22 22 23 23 23 23 24 24 25 25 24 24 23 23 23 22 22 22 22 21 21 22 23 24 25 25 26 26 26
28 28 28 28 28 28 28 28 28 27 27 26 26 25 23 22 20 19 19 19 18 17 16 16 16 15 15 14 15 16 17 17 18 18 18 18 18 18 20 21 22 21 20 20 19 19 18 18 18 18 18 18 17 17 17 17 18 19 20 21 22 23 23 24 24 25 26 26 27 26 26 25 26 25 24 24 24 23 23 24 24 25 26 26 27 27 27 28
29 29 29 29 30 30 30 30 29 29 29 28 27 26 25 24 22 21 20 20 20 19 18 17 17 17 17 16 15 16 17 17 18 18 18 18 18 18 19 21 22 22 21 20 20 19 19 19 19 19 19 18 18 18 18 17 18 19 20 21 22 23 24 24 25 26 27 27 27 27 27 27 27 27 27 26 25 25 26 26 26 27 27 27 28 29 30 31
30 30 31 31 31 31 31 31 31 31 30 30 29 28 27 26 24 23 22 22 21 21 20 19 19 19 19 18 17 17 17 18 18 18 19 19 18 18 19 21 22 22 22 21 21 20 19 19 20 20 20 19 19 19 19 19 19 19 20 21 22 23 24 25 25 26 27 28 28 28 27 27 27 28 28 27 26 26 26 27 27 28 28 29 31 32 34 35
32 32 32 32 32 33 33 33 32 32 32 31 31 30 29 28 27 25 24 24 23 23 22 21 20 20 20 19 19 18 18 18 19 19 19 19 19 19 20 21 22 22 22 22 22 21 19 20 21 21 21 21 20 20 20 20 20 20 21 22 22 23 24 25 26 26 27 28 28 29 28 27 28 29 29 29 27 27 27 28 29 30 31 32 34 35 36 36
33 33 33 34 34 34 34 34 34 34 33 33 33 32 30 30 29 28 27 26 25 24 24 23 22 21 21 21 20 19 19 20 20 20 20 20 20 20 20 21 22 22 23 23 24 22 20 20 22 22 22 22 22 22 21 21 21 22 22 22 23 24 25 25 26 27 28 29 29 29 27 25 28 30 30 31 30 30 30 30 31 32 33 34 35 35 35 35
35 35 35 35 35 35 35 35 35 35 35 34 34 34 32 31 31 30 29 28 27 27 26 25 24 23 22 22 22 21 21 21 21 21 21 21 21 21 21 21 22 22 23 24 25 24 22 21 22 22 23 23 23 23 23 22 22 22 22 23 24 24 25 26 27 27 28 29 29 31 27 23 28 31 30 31 30 31 31 31 32 32 33 34 35 35 35 36
36 36 37 37 37 37 37 36 36 36 36 35 35 35 34 33 33 31 31 30 29 29 28 27 26 25 24 23 23 23 22 22 23 23 22 22 22 22 22 22 22 22 23 24 25 25 24 23 23 23 24 24 25 25 24 24 24 24 24 24 25 25 26 27 28 28 29 30 30 32 29 24 28 32 31 31 30 31 31 31 32 32 33 34 35 36 36 37
37 37 38 38 39 39 38 38 37 37 37 36 36 36 35 35 34 33 33 32 31 31 30 29 28 27 25 24 25 24 24 24 25 24 24 23 23 23 23 23 23 23 23 24 25 26 26 26 25 24 24 25 26 25 25 25 25 25 25 25 26 26 27 28 30 30 30 31 31 34 32 28 30 33 33 32 31 31 32 32 32 33 34 35 36 37 38 38
37 38 39 40 40 40 40 39 38 38 38 37 37 37 36 36 36 35 34 34 33 32 32 30 30 28 27 26 26 26 26 26 26 26 26 25 25 24 24 24 24 24 24 25 26 26 27 27 26 26 26 26 26 26 26 27 27 27 27 27 28 28 28 29 31 32 32 32 32 34 34 31 33 34 34 34 33 33 32 32 33 34 35 36 37 37 38 38
38 39 40 41 41 41 41 40 39 39 38 38 38 37 37 37 36 36 36 35 34 34 33 32 31 30 28 27 27 27 27 27 27 28 27 26 26 26 26 26 25 25 25 25 26 26 27 28 28 28 28 27 28 28 27 27 28 28 28 28 29 30 31 32 34 34 34 33 32 35 36 33 34 36 35 35 35 34 34 34 35 35 35 35 36 36 37 38
38 39 40 41 42 42 42 42 41 40 39 39 39 38 38 38 38 37 37 36 35 35 34 33 33 32 30 29 28 28 28 28 28 29 28 28 28 27 27 27 27 27 26 27 27 27 28 29 30 30 30 29 29 29 29 28 28 29 30 29 30 30 32 35 37 37 37 36 34 37 39 35 35 38 38 37 37 36 36 36 36 36 35 35 36 37 38 38
38 39 40 41 42 43 43 43 43 42 41 41 40 39 39 39 39 39 38 37 37 36 35 35 34 33 32 31 30 29 29 29 29 29 29 29 29 29 28 28 28 28 28 28 28 28 29 30 31 32 32 31 31 30 31 30 30 31 31 31 31 31 31 34 37 39 41 40 37 39 42 38 37 39 40 40 39 38 37 37 36 35 35 35 36 38 39 39
38 39 40 42 43 44 44 44 44 43 42 42 42 41 41 40 40 40 40 39 38 38 37 37 35 34 33 32 31 31 31 31 31 31 30 31 31 30 30 30 30 30 30 30 30 30 30 31 32 33 33 33 33 32 32 33 33 33 33 33 34 34 33 34 37 39 41 42 39 41 44 42 39 40 42 42 41 39 38 37 36 34 35 36 37 39 40 41
38 39 40 41 42 43 45 45 45 45 44 43 43 43 42 42 42 42 41 40 40 40 39 38 38 36 35 34 33 33 32 32 32 32 32 33 32 32 31 32 32 31 32 32 31 31 31 32 33 34 35 35 35 34 35 35 35 35 35 35 35 36 37 36 37 40 42 43 41 42 45 44 41 40 42 43 41 39 37 36 35 35 35 37 38 40 41 42
39 40 40 41 41 43 44 45 46 46 45 45 45 44 44 44 44 44 44 42 41 41 40 40 39 38 38 36 35 35 34 34 34 35 35 35 34 33 33 33 33 33 34 33 33 32 32 33 35 35 36 37 37 37 37 36 36 36 37 38 37 38 39 38 39 41 43 44 43 43 46 46 42 40 40 41 41 38 37 36 36 35 36 38 39 40 41 41
41 41 41 40 41 42 43 45 46 47 47 46 46 46 46 46 46 47 47 46 43 41 41 40 40 40 39 37 36 36 36 35 36 36 36 36 35 35 35 34 35 35 35 35 34 33 33 35 36 36 37 38 38 38 39 38 38 37 38 40 40 40 41 41 41 43 44 46 45 46 48 48 45 39 37 40 40 38 38 37 36 36 37 39 39 40 40 41
43 42 42 42 42 42 43 43 45 46 47 48 48 48 48 48 49 49 49 50 48 44 42 41 41 41 39 38 37 37 38 37 38 37 37 37 36 36 36 36 37 36 36 36 35 35 34 36 37 37 39 40 40 40 40 41 40 38 39 42 42 41 43 44 45 46 47 47 47 48 50 50 47 41 37 39 39 38 39 38 37 37 38 39 40 40 41 43
45 45 44 43 43 44 43 43 44 45 46 47 48 49 50 50 51 51 52 53 53 48 45 44 44 42 40 39 38 39 39 39 39 39 38 38 37 38 37 37 38 38 38 37 37 37 35 36 38 39 40 41 41 41 41 43 42 39 39 42 44 44 44 44 46 48 50 50 49 48 52 52 49 44 40 40 39 40 41 40 38 38 39 40 41 42 43 45
48 47 46 46 46 45 46 45 45 45 46 47 48 49 50 51 52 53 53 56 57 52 47 47 47 44 42 40 39 40 41 40 41 40 40 39 40 40 39 39 39 39 39 39 40 39 36 37 39 40 41 42 42 41 42 45 44 42 41 43 45 45 46 46 47 50 51 53 51 48 53 56 52 46 43 40 41 42 42 40 39 39 41 42 42 44 45 45
50 50 49 49 48 47 48 48 47 47 47 48 49 49 50 50 51 53 54 58 61 56 50 49 48 46 45 43 42 42 43 42 43 43 42 42 42 42 41 41 40 40 40 41 43 40 38 39 40 41 42 42 42 43 44 46 46 45 44 45 46 46 47 47 48 51 52 55 53 47 52 58 55 50 45 41 42 44 42 40 39 40 42 43 44 46 47 47
51 51 51 52 51 51 51 51 49 49 49 50 50 50 51 51 51 53 53 59 63 59 52 49 48 47 46 45 44 45 45 45 45 45 44 43 43 43 43 41 41 41 41 43 44 41 40 41 41 41 43 43 43 44 46 46 46 46 46 47 47 47 48 48 50 52 53 57 53 46 52 59 57 54 47 41 44 46 44 40 39 40 43 44 45 47 48 49
51 51 52 53 53 54 54 54 53 52 52 52 52 52 52 52 53 54 55 61 64 60 53 48 47 47 46 46 47 47 47 47 47 46 45 45 45 44 43 42 42 43 43 44 44 42 42 43 42 43 43 43 45 46 47 47 47 48 48 48 49 49 50 50 52 52 54 58 53 48 53 59 59 55 46 43 47 48 45 41 39 41 44 46 47 48 50 51
52 51 52 53 54 55 56 56 56 55 55 55 55 55 55 55 55 57 61 64 62 58 54 49 47 47 47 47 48 48 49 49 48 48 47 46 46 45 45 44 44 44 45 45 45 44 44 44 43 43 44 45 47 48 48 48 49 49 49 50 50 52 52 52 53 53 56 58 54 53 56 59 60 55 47 46 48 47 45 42 40 42 45 47 48 49 51 51
52 52 52 53 54 54 55 56 56 57 57 58 58 58 58 58 59 62 66 63 58 57 55 51 48 47 47 48 49 49 50 50 50 49 48 48 48 48 47 46 45 45 46 46 46 46 46 45 44 44 44 46 48 49 49 49 50 50 51 51 52 54 54 54 54 54 57 59 56 57 58 60 61 55 50 51 49 48 48 45 41 42 45 48 49 50 51 51
53 53 52 53 54 54 55 55 56 56 57 58 59 60 60 62 65 67 66 61 59 59 56 52 51 50 50 50 50 51 51 52 51 50 50 51 51 50 49 47 46 46 48 48 47 47 47 46 45 45 45 47 49 50 50 51 51 52 52 52 55 56 56 56 56 56 58 60 59 60 61 61 60 57 54 54 51 51 51 47 42 44 47 49 50 51 51 51
53 53 52 53 55 55 56 56 56 57 57 57 59 60 61 65 69 67 63 61 60 59 57 56 55 54 54 54 53 53 54 54 53 53 53 53 53 52 51 49 47 47 48 49 50 49 49 47 46 45 46 48 50 50 51 52 53 53 53 55 57 56 56 58 58 59 61 61 62 64 64 62 60 58 58 57 53 52 51 47 45 47 49 50 50 51 52 53
54 54 53 53 54 55 56 56 57 58 58 58 59 60 63 69 70 66 62 60 59 59 60 59 58 57 58 57 56 56 55 55 54 54 54 55 55 54 52 50 48 48 48 49 50 50 51 51 48 47 49 50 51 51 53 54 54 54 54 57 57 55 56 59 59 60 63 63 64 66 65 62 61 61 61 58 54 52 52 50 49 50 51 51 51 53 54 54
57 56 55 54 55 56 56 56 58 58 59 60 60 63 68 71 69 65 62 60 58 59 59 58 59 59 59 59 58 57 55 56 56 56 56 57 56 55 54 52 49 49 48 48 49 50 52 53 51 51 52 53 53 53 54 55 54 55 56 58 57 57 58 59 59 61 64 65 66 65 65 63 62 62 61 58 54 52 54 54 51 51 51 51 53 55 56 56
60 59 58 57 57 58 58 59 59 59 60 60 62 68 72 70 67 64 63 60 59 58 58 59 60 61 61 60 59 58 57 57 57 58 58 58 57 57 56 53 51 50 49 48 49 50 52 53 53 55 56 57 57 57 57 56 55 57 58 58 58 60 60 60 61 62 65 68 67 65 66 65 62 59 56 56 55 54 57 56 52 51 50 52 55 57 58 58
62 62 61 58 59 61 62 61 61 61 62 62 67 73 73 70 67 65 63 62 60 58 59 60 62 62 62 62 62 60 58 59 59 60 59 59 60 60 58 56 53 52 50 49 50 50 52 53 54 57 59 60 60 60 60 59 58 58 59 60 60 61 61 60 63 65 67 70 69 66 67 66 62 57 55 58 59 58 59 56 51 51 52 54 58 60 60 60
63 64 64 60 60 62 63 62 63 64 64 67 72 76 75 73 70 67 64 63 61 60 61 62 63 64 64 65 64 62 61 62 62 62 61 62 63 63 61 58 55 53 52 51 52 52 53 54 55 58 60 61 63 64 63 61 60 61 61 62 62 62 62 62 64 67 69 72 71 68 67 63 60 59 58 59 60 59 59 54 50 52 54 57 60 61 61 61
65 67 66 62 62 64 64 64 65 65 67 71 76 77 77 75 72 68 65 64 64 64 65 65 64 65 66 66 65 64 64 64 64 64 64 64 65 64 62 60 58 56 55 54 55 55 55 56 58 59 62 64 65 65 64 62 63 65 65 64 63 63 64 64 65 68 70 72 73 73 71 61 54 58 59 58 59 59 58 54 52 54 56 58 62 62 61 62
68 68 66 64 66 67 66 66 67 68 70 73 74 75 76 75 72 68 66 65 66 66 67 67 66 67 67 66 66 66 66 66 65 65 65 66 66 65 63 61 60 59 58 58 59 58 58 59 60 62 65 67 67 65 65 64 66 67 65 64 63 63 65 67 69 70 69 72 75 76 76 63 51 55 59 58 58 60 60 57 54 55 57 60 62 62 62 62
70 70 68 67 70 70 69 70 70 71 73 73 73 74 75 73 70 68 66 66 66 67 67 68 68 68 68 67 67 67 66 66 65 66 67 66 65 64 62 61 61 61 61 61 61 61 60 60 62 65 68 69 68 67 68 68 68 67 65 65 64 63 65 68 71 71 70 74 76 77 80 68 54 56 60 58 60 62 60 56 54 56 59 61 62 62 62 63
73 72 70 70 72 72 72 73 73 74 76 76 75 75 74 73 71 70 68 68 68 68 68 68 68 68 69 68 68 66 66 67 67 68 68 66 64 63 62 62 63 63 63 63 62 61 61 62 65 68 69 69 69 69 70 70 69 68 66 66 64 64 66 69 72 73 72 76 78 78 80 70 57 58 60 59 62 63 58 55 55 58 60 61 63 62 62 63
75 74 74 74 75 75 75 76 76 78 79 77 76 76 76 75 74 72 71 71 71 70 69 69 69 69 70 69 69 68 69 70 70 69 69 67 65 63 64 65 65 65 65 64 63 61 62 64 68 70 71 72 73 72 73 72 70 68 67 66 66 67 69 71 74 75 75 79 79 78 80 71 60 62 63 62 64 61 56 55 57 60 61 62 63 61 62 64
76 76 76 77 79 80 80 79 79 80 79 78 78 78 78 77 76 74 73 73 73 73 73 73 72 72 71 71 71 71 72 73 72 70 69 68 66 65 67 68 67 67 66 65 64 63 64 67 69 71 74 75 76 75 74 72 70 69 69 69 70 70 71 74 76 77 80 83 79 78 83 74 63 64 66 64 63 59 54 57 60 62 63 63 61 61 63 64
76 76 76 77 80 83 82 80 80 82 81 81 82 81 81 81 78 75 74 74 75 77 78 78 76 75 73 72 73 74 74 73 73 71 69 69 68 67 68 68 67 66 66 65 65 65 66 68 70 74 76 78 77 75 74 72 71 72 72 71 71 71 73 76 77 80 83 83 80 81 85 77 66 64 66 64 62 58 56 60 63 63 64 62 61 62 63 64
80 80 79 79 82 84 82 80 81 83 82 83 84 84 83 83 79 76 76 78 80 81 82 81 78 77 76 75 75 74 73 72 72 72 70 70 70 70 69 68 66 65 65 66 67 68 70 72 74 76 78 79 78 75 74 74 74 74 74 73 74 74 75 77 81 84 83 84 84 82 81 79 69 62 63 63 61 59 59 62 64 64 64 64 63 63 64 65
82 82 81 82 84 84 82 80 82 82 81 82 83 82 80 80 80 80 81 83 85 86 86 84 82 81 79 77 75 74 74 73 74 74 73 73 73 72 71 69 68 68 69 70 71 72 74 77 78 78 79 79 78 76 75 75 75 75 75 75 76 76 77 81 85 84 82 86 89 80 75 78 73 63 61 60 58 60 62 63 65 66 66 65 64 64 64 65
81 80 79 81 83 84 82 80 79 79 79 79 78 75 74 76 78 80 82 84 86 87 88 87 84 82 79 76 76 75 74 73 74 75 75 75 74 73 72 71 72 73 73 74 75 75 78 80 78 79 81 80 79 77 77 77 76 77 77 76 77 79 80 83 84 83 84 89 88 77 71 73 71 63 59 55 56 62 64 64 67 68 67 66 64 63 64 65
82 81 81 83 84 83 82 79 78 79 80 80 80 79 77 77 78 80 81 81 82 81 82 83 81 79 78 77 74 71 69 69 71 72 72 74 74 73 73 73 73 74 74 74 75 76 79 79 76 78 81 78 75 76 78 78 79 79 76 73 77 82 81 81 82 82 82 83 79 73 70 69 64 59 56 54 59 64 66 67 69 69 66 64 63 63 64 64
83 82 82 84 84 83 81 81 82 83 82 82 83 84 83 82 82 83 82 82 80 78 78 79 77 75 76 75 72 70 70 70 70 68 67 69 71 71 71 72 71 72 73 73 74 75 77 77 74 76 79 76 73 74 77 78 80 80 75 70 74 80 79 76 75 73 71 72 71 69 70 68 61 55 55 58 62 66 67 68 67 65 63 63 62 63 63 60
84 84 84 85 85 83 81 80 81 83 84 84 85 83 84 84 82 80 81 81 79 78 79 78 72 69 72 74 73 73 71 69 68 67 65 67 69 69 70 72 73 75 76 75 75 76 76 76 74 74 78 76 71 74 78 78 79 80 76 70 68 70 70 66 63 63 63 65 66 65 68 67 60 55 58 62 64 66 66 64 62 61 62 62 62 61 59 56
86 88 88 87 84 82 80 78 78 82 85 87 87 85 85 84 80 79 82 82 79 78 78 75 70 69 73 75 75 73 70 69 69 69 69 71 73 73 75 77 77 78 76 75 76 76 74 73 69 70 75 74 71 75 78 77 80 81 75 65 60 59 61 60 59 59 59 60 63 66 68 65 59 58 60 62 64 65 63 61 60 61 61 60 59 57 55 55
Wind_Direction
242 244 247 251 254 258 260 263 265 267 269 272 275 280 285 292 299 307 317 326 335 344 351 356 358 359 358 359 0 1 2 4 5 5 5 6 9 11 11 9 6 5 4 3 360 356 352 349 347 344 339 329 319 311 304 298 294 292 292 294 296 295 293 292 291 290 289 288 288 288 289 290 291 292 291 290 290 290 292 294 295 297 298 298 299 300 301 301
241 244 246 249 252 255 258 261 263 266 268 270 273 276 281 285 290 297 304 312 321 329 338 345 350 352 353 354 355 357 359 1 1 1 1 3 5 8 9 8 5 4 3 2 0 356 352 348 345 344 346 342 335 330 322 314 307 303 301 302 303 300 298 297 296 295 294 292 291 292 294 294 294 293 291 290 290 291 292 293 295 297 298 298 300 301 301 299
240 243 245 247 250 253 256 259 261 264 266 268 271 274 278 281 285 289 294 301 307 315 324 331 338 343 346 348 350 352 355 357 357 357 358 359 1 4 6 6 3 1 0 1 360 356 352 348 346 344 346 347 342 337 333 326 319 315 311 311 310 306 304 303 301 299 297 295 295 296 298 298 296 294 293 292 291 291 292 294 295 295 296 298 299 299 298 297
241 243 245 247 249 252 254 257 259 262 264 266 269 271 274 278 282 284 287 292 298 304 311 319 327 333 338 341 344 347 349 352 353 354 355 355 357 360 2 2 1 359 357 357 356 353 349 347 348 348 349 350 346 341 339 334 328 324 321 317 314 311 308 305 303 302 300 299 298 300 301 300 298 297 296 294 293 292 291 291 292 293 296 297 297 296 296 297
240 243 245 247 248 250 253 255 258 260 262 264 266 269 271 274 278 280 283 286 290 295 300 308 315 323 329 333 337 341 344 347 349 350 350 351 354 356 358 359 358 356 354 353 352 349 346 344 347 351 352 351 348 345 341 338 334 331 328 323 318 313 310 307 305 304 303 302 302 303 303 302 301 301 300 297 295 294 292 292 292 294 296 296 295 294 295 297
241 243 245 247 248 249 251 253 255 258 260 262 263 266 268 271 274 276 279 281 284 288 293 298 304 312 319 324 329 334 339 343 345 346 347 348 349 352 354 354 355 353 351 350 348 345 342 341 346 351 353 352 350 347 343 340 336 334 331 327 322 318 313 310 307 306 304 304 305 306 306 305 306 307 306 304 300 298 297 296 295 295 295 294 293 293 295 297
242 244 246 247 248 249 251 252 254 256 257 259 261 263 265 267 269 272 275 277 279 282 286 290 296 302 308 315 321 326 332 337 340 343 343 343 344 347 348 349 351 350 348 347 344 342 342 341 343 347 350 351 350 347 343 339 337 335 332 328 325 321 317 314 311 308 306 305 305 306 306 307 308 309 309 306 303 302 302 299 297 296 295 294 293 294 296 297
243 244 246 248 249 250 251 252 254 255 256 258 259 261 262 264 265 268 270 273 276 278 281 285 290 294 300 307 313 319 325 331 335 338 339 339 339 341 343 345 347 347 345 343 343 341 340 339 340 342 345 348 347 344 342 339 338 336 332 329 326 323 321 317 314 311 308 307 307 306 307 307 307 308 307 304 302 303 302 300 299 298 297 295 295 295 296 298
242 244 246 247 249 250 251 252 253 255 256 257 259 260 261 262 263 264 266 269 272 274 277 281 285 290 294 300 306 313 318 324 329 332 335 334 334 336 338 340 342 343 341 340 341 339 337 337 336 337 340 342 343 341 339 338 339 337 334 331 329 326 324 321 318 314 311 310 309 309 309 309 309 308 305 302 303 303 301 300 300 299 298 297 296 296 297 299
240 242 244 246 248 250 251 252 253 254 256 258 259 260 261 262 262 262 264 266 268 271 274 277 281 286 290 296 301 307 313 318 322 326 330 330 330 331 332 336 338 339 338 337 337 336 335 333 332 333 335 337 338 337 336 337 339 337 335 333 331 330 328 325 322 318 315 312 310 310 310 311 310 307 304 303 304 303 302 302 301 299 298 297 296 296 297 298
238 240 242 244 246 248 250 252 253 254 255 257 258 259 261 262 262 262 263 265 267 269 271 274 278 282 287 292 297 303 307 312 316 320 324 326 326 326 328 331 333 334 335 333 332 333 332 331 330 330 331 332 333 333 333 335 336 335 334 332 331 330 329 327 324 322 319 316 314 310 309 311 308 303 302 303 303 302 302 301 299 298 297 295 295 296 297 298
237 238 239 241 243 246 248 250 252 253 255 256 258 259 259 261 262 262 263 264 266 267 270 272 276 279 284 288 292 298 303 307 310 313 319 322 321 322 323 326 328 330 331 330 329 329 329 328 327 327 327 328 328 328 329 332 333 333 332 330 329 329 327 326 324 323 320 317 315 310 311 312 304 300 300 300 300 300 300 298 296 296 295 294 294 295 296 297
238 238 238 240 241 243 246 248 250 252 253 255 257 258 258 259 261 262 262 264 265 266 268 271 274 277 281 285 289 294 299 302 304 308 313 316 317 318 319 321 323 325 327 327 326 325 325 326 325 323 323 324 323 324 325 328 329 329 329 327 327 326 324 323 321 321 319 316 315 310 312 315 305 301 301 300 302 302 300 298 297 296 294 293 293 293 293 294
242 241 240 240 241 242 244 246 248 250 252 253 256 257 258 259 260 260 262 263 264 266 267 269 272 275 279 283 287 291 294 297 300 304 308 311 313 314 315 317 318 321 323 324 323 321 321 323 323 321 320 321 320 320 321 324 324 325 326 325 325 324 321 320 317 317 316 315 315 311 313 316 307 303 302 303 304 301 299 298 297 295 293 291 291 290 290 290
244 243 242 242 242 243 244 246 247 249 251 252 255 256 257 259 260 260 261 262 264 265 267 269 271 273 277 281 284 288 291 294 297 300 304 307 309 310 312 313 313 316 319 320 320 318 318 320 320 319 318 318 317 317 318 319 319 320 322 322 322 321 319 317 315 315 314 313 314 311 312 316 309 304 305 305 304 301 300 299 296 294 291 290 289 289 289 289
245 245 244 244 244 244 245 246 248 249 251 252 254 256 257 258 260 260 261 262 263 265 266 268 270 272 275 278 282 285 288 291 294 298 301 303 304 306 308 309 309 311 314 316 316 315 315 316 317 317 316 316 315 314 315 315 315 316 318 319 319 318 317 315 313 313 312 312 312 309 311 314 310 307 307 306 305 304 302 301 298 295 293 291 291 290 291 291
247 246 246 245 245 245 246 247 249 251 252 253 255 257 258 258 260 261 262 262 263 265 266 268 269 271 273 276 279 283 286 289 292 295 298 299 300 302 305 306 306 308 310 312 313 312 312 313 314 315 315 314 313 312 312 311 312 312 313 315 316 317 317 315 313 313 312 312 313 310 309 313 311 308 309 308 306 304 303 301 299 297 297 295 294 293 293 294
250 249 248 247 247 246 247 248 250 252 254 255 256 258 259 259 260 261 263 263 264 265 266 268 269 270 273 275 277 280 283 287 290 292 294 295 297 299 302 303 304 306 307 308 310 309 310 311 311 312 313 312 311 311 310 309 309 308 309 310 311 313 314 314 313 313 313 313 315 312 309 312 311 309 309 309 307 305 304 302 300 300 300 298 296 295 295 296
253 252 251 250 249 248 249 249 251 252 254 257 258 259 261 262 262 262 264 265 265 267 268 268 269 271 272 273 276 278 281 285 287 289 291 292 294 297 299 300 301 303 304 305 307 307 308 308 308 310 311 309 310 310 308 308 308 307 306 307 307 308 309 310 310 312 312 313 316 313 310 311 312 310 309 308 307 306 305 303 302 302 300 298 296 296 296 297
255 255 254 253 252 251 251 251 252 253 255 257 259 260 261 263 264 264 264 266 267 267 268 269 270 271 273 274 275 277 280 283 285 288 290 291 293 295 296 298 299 301 302 303 304 304 306 306 306 308 308 308 309 308 308 307 307 307 306 305 306 305 306 307 307 308 309 311 314 313 309 310 312 312 310 307 307 307 306 303 302 301 299 297 297 297 297 297
255 256 256 255 255 255 254 254 254 255 256 258 260 261 263 263 264 265 265 266 267 268 269 271 271 271 272 274 275 277 279 282 286 288 290 291 292 294 294 295 297 299 300 301 302 302 304 303 303 305 306 306 307 307 307 306 307 307 306 306 305 304 304 305 305 306 307 309 312 311 308 308 311 312 311 308 306 306 305 302 301 300 298 298 298 298 298 297
254 255 256 257 257 257 257 257 256 257 257 259 260 262 263 264 265 266 265 265 267 269 270 271 273 274 275 276 278 279 280 283 286 288 289 291 292 292 292 293 295 296 297 298 299 299 301 301 300 302 304 305 306 306 305 304 305 306 307 306 305 304 304 304 304 304 305 307 309 310 307 307 310 312 312 309 307 307 304 301 300 300 299 299 299 299 299 299
254 255 256 256 257 258 258 259 259 259 259 260 261 262 264 265 265 266 267 266 265 267 269 271 273 274 276 278 280 281 283 285 286 287 289 290 290 290 290 292 293 294 295 296 296 297 300 300 299 301 302 304 304 304 303 303 303 305 306 305 305 305 304 305 305 304 305 306 309 310 308 307 308 312 314 311 309 309 304 300 301 300 300 300 300 300 300 301
255 255 256 257 257 258 258 259 260 261 261 262 262 263 264 265 266 267 268 267 264 264 267 270 271 272 275 277 279 281 283 285 285 287 287 288 288 288 289 289 290 292 293 293 293 295 299 300 299 300 302 303 302 302 301 300 302 304 305 304 304 305 304 306 306 306 306 307 309 311 309 307 306 311 316 312 311 310 303 301 301 301 301 301 301 302 303 303
255 256 256 257 257 258 259 259 260 262 262 263 264 265 265 266 267 268 268 268 266 264 265 268 269 271 273 277 279 280 282 283 284 285 285 286 286 286 287 288 289 290 291 291 292 295 299 299 298 300 301 301 300 300 299 298 300 303 303 303 303 304 304 305 306 307 307 307 309 311 311 308 306 312 317 314 315 311 304 303 303 302 302 302 302 305 305 305
256 256 256 257 258 259 260 260 261 262 262 264 265 266 267 267 268 269 270 270 268 266 266 267 268 271 273 276 278 279 280 281 282 283 284 285 285 286 287 287 289 289 289 290 291 294 298 296 296 298 298 298 299 298 296 297 299 301 302 302 302 304 304 305 306 305 307 307 308 312 312 307 306 312 316 316 317 312 307 306 304 302 302 302 304 305 305 304
256 256 257 258 258 259 260 261 261 263 264 264 265 266 267 267 269 270 271 271 270 268 266 266 269 272 274 276 277 278 279 280 281 282 283 284 285 286 286 287 288 287 288 290 290 294 296 294 296 296 296 297 297 295 294 296 298 300 301 300 301 303 303 304 305 304 306 306 307 313 310 305 305 310 314 318 316 312 310 307 303 301 299 301 303 303 302 303
256 256 257 258 259 259 260 261 262 263 264 264 266 266 267 267 268 269 270 270 270 269 268 268 270 272 274 276 277 278 279 279 280 281 282 283 284 284 285 285 286 286 288 289 290 293 294 294 295 295 295 296 295 293 293 295 296 298 299 299 300 302 302 304 303 304 306 304 307 313 307 303 305 306 312 319 313 312 314 309 301 298 298 300 301 300 300 301
256 256 257 258 259 259 260 261 262 262 264 265 266 267 267 268 269 269 269 268 269 270 271 271 272 273 275 276 277 277 278 278 279 280 281 282 282 283 283 284 285 287 288 288 290 292 292 293 294 294 295 295 293 293 293 294 295 297 298 299 300 300 301 302 302 304 305 304 308 311 305 304 304 304 313 319 312 313 316 310 301 298 299 300 299 298 299 301
255 256 257 258 259 259 260 261 262 263 263 264 266 266 268 268 269 269 267 266 269 273 274 274 274 275 276 276 276 277 277 278 279 280 281 281 282 282 283 284 286 287 288 288 290 291 291 292 293 293 294 294 293 292 292 293 294 296 297 298 299 299 299 300 301 303 304 304 308 307 304 303 302 305 315 315 311 314 316 310 302 298 298 297 297 298 300 302
254 255 256 258 259 260 261 261 262 263 263 264 265 266 267 268 268 267 266 268 272 274 275 277 277 277 276 276 277 277 278 278 279 280 280 281 281 282 284 285 286 288 288 288 289 290 291 291 292 293 293 293 292 292 292 292 293 294 296 298 299 298 298 299 300 303 303 305 307 305 303 301 300 305 313 310 310 316 315 309 302 298 296 296 298 300 302 305
255 255 256 257 258 260 261 261 262 263 263 264 265 265 266 266 266 265 267 270 273 274 276 278 279 278 277 276 277 277 278 278 279 280 281 281 282 283 284 285 287 288 287 288 289 289 289 291 292 292 292 292 291 291 292 291 292 293 295 298 297 297 298 299 300 303 303 304 305 303 301 300 300 306 309 307 311 316 315 309 302 297 297 298 300 301 304 308
257 257 256 257 258 259 260 261 262 263 264 264 264 265 265 264 264 265 267 270 272 276 278 279 279 278 278 277 277 276 277 278 279 280 281 282 282 283 284 286 287 287 288 289 289 289 289 290 290 291 291 290 290 290 290 290 291 292 295 297 296 297 298 298 300 302 303 304 303 301 301 300 302 305 304 305 312 316 315 309 301 299 299 300 302 303 306 310
258 258 258 259 259 259 260 261 261 262 263 263 264 264 264 263 264 267 269 270 273 275 276 277 278 278 278 277 276 277 278 279 279 280 280 281 281 282 284 285 285 286 288 288 289 290 290 289 290 291 290 289 288 288 288 288 289 291 294 294 293 296 296 296 299 300 301 302 300 300 300 300 302 302 301 305 312 315 315 309 302 299 300 301 302 304 308 311
257 258 258 260 260 261 261 261 261 261 262 263 263 263 262 264 266 269 271 272 272 273 275 276 277 277 276 276 277 278 278 279 279 279 279 279 280 281 282 283 284 285 287 288 288 289 288 289 291 290 289 288 288 287 287 287 288 291 292 292 292 293 293 295 298 298 299 299 298 299 300 299 300 299 299 306 311 314 314 308 301 300 301 302 302 304 308 311
258 258 258 259 260 261 261 261 261 261 262 263 262 263 264 266 268 270 271 271 272 273 275 275 275 275 276 277 277 278 278 278 278 278 279 279 280 281 281 282 283 284 286 287 287 286 286 288 289 289 288 288 288 287 287 287 289 292 292 292 292 292 294 296 298 298 298 298 299 301 301 299 298 298 301 306 310 313 313 306 301 301 302 302 303 305 308 311
258 259 259 259 259 260 260 261 261 262 262 263 263 265 267 268 268 269 270 272 273 273 274 274 275 276 277 277 278 278 278 278 278 278 279 280 281 281 282 282 283 285 286 286 285 284 285 285 286 287 287 288 289 288 287 288 291 292 291 291 291 293 296 297 298 298 298 298 300 301 301 298 297 299 303 306 310 313 310 305 301 300 302 304 304 305 308 310
258 259 259 259 259 260 260 261 260 261 261 262 264 266 267 268 269 270 271 272 273 273 272 273 274 276 276 277 277 278 278 278 279 279 280 280 281 281 282 282 283 284 285 285 284 284 283 283 284 284 286 287 287 286 287 290 292 291 290 290 292 295 297 297 297 298 297 298 300 300 299 297 297 300 303 307 312 311 308 304 299 300 304 304 303 305 307 309
258 259 260 259 259 259 260 260 261 260 260 261 264 266 268 269 270 270 271 272 272 272 272 273 273 274 274 275 276 277 278 279 279 280 280 280 280 281 282 283 283 284 284 284 283 283 283 283 283 284 285 284 284 285 288 290 290 288 288 290 293 295 296 295 295 296 297 298 298 298 297 295 298 301 304 309 310 307 306 303 297 300 303 302 302 304 306 308
259 259 260 260 259 260 260 260 261 261 261 262 265 267 268 268 269 270 271 271 271 272 273 273 273 273 274 276 277 278 278 279 280 280 280 280 280 281 282 283 284 284 284 284 283 284 284 284 285 285 283 283 285 287 288 287 286 286 288 291 293 294 295 294 294 296 297 297 297 296 295 295 300 304 306 309 306 304 305 300 295 299 301 299 301 303 305 308
260 260 261 261 261 261 262 261 262 263 264 264 265 265 266 267 269 269 269 269 270 270 271 272 272 274 275 276 277 278 278 279 279 279 279 279 280 282 283 284 284 284 284 284 284 285 285 286 285 284 283 285 287 287 286 285 285 286 289 292 293 293 293 292 294 296 296 295 295 294 294 298 305 307 307 307 302 302 302 297 294 297 298 298 301 303 306 308
260 261 262 261 262 262 262 262 263 263 264 265 266 267 268 270 270 270 270 270 269 270 271 272 273 275 275 276 276 277 277 277 277 277 278 279 281 283 284 284 284 284 284 284 285 286 286 286 285 285 286 287 286 286 285 285 286 288 291 292 291 291 292 292 293 294 293 293 293 292 294 301 307 308 305 303 300 301 301 296 295 296 297 298 301 304 307 308
262 262 262 262 262 261 261 261 263 264 265 267 268 269 270 270 271 271 271 271 271 272 272 273 274 274 274 275 275 275 276 276 276 277 278 280 282 284 284 284 284 284 284 285 286 287 285 284 285 286 286 286 285 286 286 287 289 291 292 291 290 291 293 292 292 292 292 292 292 292 296 302 308 308 303 300 299 301 299 295 294 296 297 298 301 304 306 307
262 263 263 263 263 263 262 264 265 266 267 268 268 268 268 268 269 270 271 272 273 274 274 273 273 272 273 274 275 275 275 275 276 278 280 282 283 284 283 283 283 284 285 285 286 284 283 283 284 284 284 284 284 285 287 289 290 290 289 289 290 292 292 291 291 291 291 292 293 294 296 302 309 306 300 299 301 301 298 294 294 295 296 298 301 303 305 306
261 261 262 263 263 264 264 266 266 266 266 267 267 267 267 267 268 270 272 274 274 274 273 273 272 272 273 273 273 273 274 276 278 280 281 282 282 282 282 282 283 284 284 284 283 281 280 280 281 281 282 282 284 286 288 289 288 287 288 290 291 291 290 291 290 288 290 294 295 294 297 303 307 300 297 300 302 300 296 293 294 295 296 299 301 302 304 305
261 260 260 261 262 263 264 266 266 266 267 267 267 267 267 268 269 270 272 272 272 272 272 272 272 272 272 271 272 273 275 278 279 279 279 279 280 280 281 282 283 284 283 282 281 280 279 279 279 279 280 281 283 285 286 286 285 286 288 289 289 290 290 289 287 288 293 295 294 295 300 304 301 295 297 302 302 297 293 292 294 295 297 299 301 301 304 305
263 262 261 262 263 264 265 266 266 267 267 267 268 269 269 269 268 267 267 268 270 271 271 271 271 271 271 273 274 276 277 277 277 277 276 277 278 280 280 280 280 280 279 278 277 277 277 277 278 278 279 280 282 283 283 283 284 285 286 287 288 288 288 287 287 292 295 292 292 298 303 301 296 294 298 302 299 294 291 292 295 296 297 300 300 302 305 306
264 264 264 265 266 265 265 266 267 267 267 267 267 267 266 265 265 265 265 267 268 269 269 270 271 273 274 275 277 278 278 277 276 275 276 277 278 279 279 279 279 278 277 275 275 276 275 276 280 280 279 281 283 283 282 282 283 283 284 286 287 286 286 287 290 294 293 291 295 300 298 293 292 295 299 301 296 292 292 294 296 297 298 300 300 303 305 305
263 263 264 265 265 266 268 268 268 266 265 265 264 264 264 264 265 265 265 266 268 269 270 272 273 274 273 273 275 276 276 276 275 276 278 279 278 278 278 279 280 280 279 277 277 276 276 279 284 282 280 283 286 284 282 282 282 283 285 287 287 286 288 291 294 295 295 294 296 296 292 290 291 295 298 297 293 293 294 295 296 297 299 299 300 303 305 304
260 262 264 264 265 266 266 266 265 264 264 263 263 263 264 264 265 266 266 267 269 271 273 274 274 272 270 271 272 273 273 275 277 279 281 280 279 278 278 278 278 277 277 278 279 280 280 283 286 284 282 285 288 287 284 282 282 283 286 287 287 289 292 294 295 295 294 293 294 292 290 289 290 294 295 294 293 294 295 296 297 298 298 299 302 304 303 302
259 262 263 263 263 262 261 261 261 262 262 263 264 265 266 265 265 267 268 268 269 271 273 273 273 270 268 268 269 271 273 277 279 280 280 278 277 276 276 276 275 275 276 277 279 281 281 282 284 284 284 287 289 287 283 283 282 283 285 289 292 294 293 292 292 292 292 293 294 291 288 288 291 294 293 293 294 294 295 297 298 298 298 301 303 302 301 300
257 260 262 262 261 259 257 257 258 259 261 264 266 267 266 265 265 266 267 267 267 269 270 270 269 267 266 267 268 271 275 277 277 276 275 274 274 273 273 273 273 275 276 277 277 278 279 282 286 286 286 288 290 286 284 284 282 283 288 294 297 293 288 288 291 292 292 293 292 289 287 290 294 295 294 293 293 294 295 296 296 297 299 301 301 300 299 299
Height
5899 5899 5899 5899 5899 5899 5899 5899 5899 5899 5900 5900 5899 5899 5899 5899 5898 5898 5898 5897 5897 5896 5896 5895 5894 5893 5892 5891 5890 5889 5888 5887 5886 5885 5884 5883 5881 5880 5878 5876 5875 5873 5872 5870 5869 5868 5867 5866 5865 5864 5864 5863 5862 5861 5860 5859 5857 5856 5855 5854 5853 5852 5850 5850 5849 5848 5847 5845 5844 5843 5844 5844 5845 5845 5844 5843 5842 5841 5840 5839 5837 5836 5835 5834 5833 5832 5831 5830
5897 5897 5897 5897 5897 5898 5898 5898 5898 5898 5898 5898 5898 5898 5898 5898 5897 5897 5897 5896 5896 5895 5895 5894 5893 5893 5892 5891 5889 5888 5887 5886 5885 5884 5883 5882 5881 5880 5878 5876 5875 5873 5872 5870 5869 5868 5867 5865 5864 5863 5862 5862 5861 5860 5859 5857 5856 5855 5853 5853 5852 5850 5849 5848 5847 5846 5845 5843 5842 5841 5841 5842 5842 5842 5841 5841 5840 5839 5838 5836 5835 5834 5833 5831 5830 5829 5828 5827
5896 5896 5896 5896 5896 5896 5896 5896 5896 5896 5896 5896 5896 5896 5896 5896 5896 5896 5895 5895 5895 5894 5894 5893 5892 5892 5891 5890 5889 5887 5886 5885 5885 5884 5883 5882 5880 5879 5878 5876 5875 5873 5872 5870 5869 5868 5866 5865 5864 5862 5861 5860 5859 5858 5857 5856 5855 5853 5852 5852 5851 5849 5847 5846 5845 5843 5842 5841 5840 5839 5839 5839 5839 5839 5839 5838 5838 5837 5835 5834 5833 5832 5830 5829 5828 5826 5825 5824
5894 5894 5894 5895 5895 5895 5895 5895 5895 5895 5895 5895 5895 5895 5895 5895 5895 5894 5894 5894 5893 5893 5892 5892 5891 5890 5890 5889 5888 5887 5886 5885 5884 5883 5882 5881 5879 5878 5877 5875 5874 5872 5871 5869 5868 5867 5865 5864 5863 5861 5860 5859 5858 5856 5855 5854 5853 5852 5850 5850 5849 5848 5846 5845 5843 5842 5840 5839 5838 5838 5837 5836 5836 5836 5836 5835 5835 5834 5833 5832 5830 5829 5828 5826 5825 5824 5822 5821
5892 5893 5893 5893 5893 5893 5893 5893 5893 5893 5893 5893 5893 5893 5893 5893 5893 5893 5893 5892 5892 5891 5891 5890 5889 5889 5888 5887 5886 5886 5884 5883 5882 5881 5880 5879 5878 5877 5876 5875 5873 5872 5870 5869 5867 5866 5865 5863 5862 5860 5859 5857 5856 5855 5853 5852 5850 5849 5848 5847 5847 5846 5845 5843 5842 5840 5839 5837 5837 5836 5835 5834 5834 5834 5833 5832 5832 5831 5830 5829 5827 5826 5825 5824 5822 5821 5820 5819
5891 5891 5891 5891 5891 5891 5891 5891 5891 5891 5891 5891 5891 5891 5891 5891 5891 5891 5891 5890 5890 5890 5889 5888 5888 5887 5887 5886 5885 5884 5883 5882 5881 5880 5879 5878 5877 5876 5875 5874 5872 5871 5869 5868 5866 5865 5864 5862 5861 5859 5858 5856 5854 5853 5852 5850 5849 5847 5846 5845 5844 5844 5843 5842 5840 5839 5837 5836 5835 5834 5833 5832 5832 5831 5831 5829 5828 5827 5826 5825 5824 5823 5822 5821 5819 5818 5817 5816
5889 5889 5889 5889 5889 5889 5889 5889 5889 5889 5889 5889 5889 5889 5889 5889 5889 5889 5889 5888 5888 5888 5887 5887 5886 5885 5885 5884 5883 5882 5882 5881 5880 5879 5878 5877 5876 5875 5874 5873 5871 5870 5868 5867 5865 5864 5862 5860 5859 5858 5856 5855 5853 5852 5851 5849 5848 5846 5845 5844 5843 5841 5840 5839 5838 5837 5835 5834 5833 5832 5832 5831 5830 5829 5828 5827 5825 5824 5823 5823 5821 5820 5819 5818 5816 5815 5814 5813
5887 5887 5887 5887 5887 5887 5887 5887 5887 5887 5886 5886 5886 5886 5887 5887 5887 5887 5886 5886 5886 5886 5885 5884 5884 5883 5883 5882 5882 5881 5880 5879 5878 5877 5876 5875 5874 5873 5872 5871 5870 5869 5867 5866 5864 5862 5860 5858 5857 5856 5855 5854 5852 5851 5850 5849 5847 5846 5844 5842 5841 5840 5838 5837 5836 5834 5833 5832 5831 5830 5830 5829 5827 5827 5826 5825 5823 5822 5821 5820 5818 5817 5816 5814 5813 5811 5810 5809
5884 5884 5885 5885 5885 5885 5885 5885 5885 5885 5884 5884 5884 5884 5884 5884 5885 5885 5884 5884 5884 5883 5883 5882 5882 5881 5881 5880 5880 5879 5878 5877 5876 5875 5874 5874 5873 5872 5871 5869 5868 5867 5866 5864 5863 5861 5859 5857 5855 5854 5853 5852 5851 5850 5849 5848 5846 5845 5843 5841 5839 5838 5836 5835 5833 5832 5830 5829 5828 5828 5827 5826 5825 5823 5823 5822 5821 5820 5819 5817 5816 5814 5812 5811 5809 5808 5807 5806
5881 5882 5882 5883 5883 5883 5883 5883 5883 5882 5882 5882 5882 5882 5882 5882 5882 5882 5882 5881 5881 5881 5881 5880 5880 5879 5878 5878 5877 5877 5876 5875 5874 5873 5873 5872 5871 5870 5869 5868 5866 5865 5864 5862 5861 5859 5858 5855 5854 5852 5851 5850 5849 5848 5847 5846 5845 5843 5842 5840 5838 5836 5834 5833 5831 5829 5828 5827 5826 5825 5824 5824 5822 5820 5819 5819 5819 5818 5816 5815 5813 5811 5810 5808 5806 5805 5803 5802
5878 5878 5879 5880 5880 5880 5880 5880 5880 5880 5880 5880 5880 5880 5880 5879 5880 5880 5880 5879 5879 5879 5878 5878 5878 5877 5876 5875 5875 5874 5874 5873 5872 5871 5870 5870 5869 5868 5867 5866 5864 5863 5862 5860 5859 5858 5856 5854 5852 5850 5849 5848 5847 5846 5845 5843 5842 5841 5840 5838 5836 5835 5832 5831 5829 5827 5825 5824 5823 5822 5822 5822 5820 5818 5817 5816 5816 5815 5814 5812 5811 5809 5808 5806 5804 5802 5800 5799
5874 5875 5876 5876 5877 5877 5877 5877 5877 5877 5877 5877 5877 5877 5877 5877 5877 5877 5877 5877 5876 5876 5876 5875 5875 5875 5874 5873 5873 5872 5872 5871 5870 5869 5868 5868 5867 5866 5865 5864 5862 5861 5860 5858 5857 5855 5854 5853 5850 5848 5847 5846 5844 5843 5842 5841 5840 5839 5838 5836 5835 5833 5831 5829 5827 5825 5823 5822 5821 5819 5820 5820 5817 5815 5814 5813 5813 5812 5810 5809 5807 5806 5804 5802 5800 5799 5797 5795
5872 5872 5872 5873 5873 5873 5874 5874 5874 5874 5874 5874 5874 5874 5875 5875 5875 5875 5875 5874 5874 5874 5873 5873 5873 5872 5872 5871 5870 5870 5869 5869 5868 5867 5866 5865 5864 5864 5863 5862 5860 5859 5858 5856 5854 5853 5852 5851 5849 5847 5845 5844 5842 5841 5840 5838 5837 5836 5836 5834 5833 5831 5829 5827 5825 5824 5821 5820 5818 5816 5818 5819 5814 5811 5811 5810 5809 5808 5806 5805 5803 5802 5800 5799 5796 5795 5793 5791
5869 5869 5869 5869 5870 5870 5870 5871 5871 5871 5871 5871 5871 5871 5872 5872 5871 5872 5872 5871 5871 5871 5871 5871 5870 5870 5870 5869 5868 5867 5867 5866 5865 5864 5864 5863 5862 5861 5860 5859 5858 5857 5856 5854 5852 5850 5849 5848 5847 5845 5843 5842 5840 5839 5837 5836 5835 5834 5833 5831 5830 5829 5827 5825 5823 5822 5820 5818 5816 5813 5814 5816 5812 5808 5807 5807 5806 5804 5803 5801 5800 5798 5796 5794 5792 5791 5789 5787
5866 5866 5866 5867 5867 5867 5867 5867 5868 5868 5868 5868 5867 5868 5868 5868 5868 5868 5869 5868 5868 5868 5868 5868 5868 5867 5867 5866 5865 5865 5864 5863 5862 5862 5861 5860 5860 5859 5858 5857 5856 5855 5853 5852 5850 5848 5847 5846 5845 5843 5841 5840 5838 5837 5835 5833 5832 5831 5830 5829 5827 5826 5825 5823 5821 5819 5818 5816 5814 5810 5810 5812 5809 5805 5804 5803 5803 5801 5799 5798 5796 5794 5792 5790 5788 5786 5784 5782
5862 5863 5863 5863 5864 5864 5864 5864 5864 5864 5864 5864 5864 5864 5865 5865 5865 5865 5865 5865 5865 5865 5865 5865 5865 5865 5865 5864 5863 5862 5861 5861 5860 5859 5858 5857 5857 5856 5855 5854 5853 5852 5851 5850 5848 5846 5844 5843 5842 5841 5839 5838 5836 5834 5833 5831 5830 5828 5827 5826 5824 5823 5822 5820 5818 5817 5815 5814 5812 5808 5807 5808 5805 5802 5801 5800 5798 5797 5795 5794 5791 5789 5788 5786 5783 5781 5779 5777
5859 5859 5859 5860 5860 5860 5861 5861 5861 5861 5861 5861 5861 5861 5861 5861 5861 5861 5861 5861 5861 5861 5862 5862 5861 5861 5862 5861 5861 5859 5858 5858 5857 5856 5855 5855 5854 5853 5852 5851 5850 5849 5848 5847 5846 5844 5842 5840 5839 5838 5837 5835 5833 5832 5831 5829 5827 5826 5824 5823 5821 5819 5818 5816 5814 5813 5811 5811 5810 5806 5803 5805 5802 5798 5798 5796 5794 5793 5791 5789 5787 5785 5783 5781 5779 5777 5774 5772
5855 5855 5856 5856 5856 5857 5857 5857 5857 5858 5858 5857 5857 5857 5857 5857 5857 5857 5857 5857 5858 5858 5858 5858 5858 5858 5858 5858 5858 5857 5856 5855 5854 5853 5853 5852 5851 5850 5849 5848 5847 5846 5845 5844 5843 5842 5840 5838 5836 5835 5834 5833 5831 5829 5827 5826 5825 5823 5822 5821 5819 5817 5815 5812 5809 5808 5806 5806 5807 5802 5799 5801 5799 5795 5793 5792 5790 5788 5787 5785 5782 5781 5779 5777 5774 5772 5770 5768
5851 5851 5852 5852 5853 5853 5853 5854 5854 5854 5854 5853 5853 5854 5853 5853 5853 5853 5853 5853 5854 5854 5854 5854 5854 5854 5855 5855 5854 5854 5853 5852 5851 5850 5849 5848 5847 5847 5846 5845 5844 5843 5842 5841 5840 5839 5837 5835 5833 5832 5831 5829 5828 5826 5824 5823 5822 5820 5819 5818 5816 5815 5814 5811 5807 5804 5801 5801 5802 5798 5794 5796 5796 5793 5789 5787 5785 5784 5782 5780 5778 5776 5774 5772 5770 5767 5766 5764
5847 5848 5848 5848 5849 5849 5849 5850 5850 5850 5850 5850 5850 5850 5849 5849 5849 5849 5849 5849 5849 5850 5850 5850 5850 5851 5851 5851 5851 5850 5850 5849 5848 5847 5846 5845 5844 5844 5843 5842 5840 5840 5839 5838 5837 5835 5834 5832 5830 5829 5828 5826 5825 5823 5821 5820 5818 5817 5815 5814 5813 5811 5810 5809 5805 5802 5799 5796 5798 5795 5790 5790 5792 5790 5786 5783 5781 5779 5777 5775 5773 5772 5770 5767 5765 5763 5761 5759
5843 5843 5843 5844 5845 5845 5845 5846 5846 5846 5847 5847 5846 5846 5845 5845 5845 5844 5845 5846 5845 5845 5846 5845 5846 5847 5847 5847 5847 5847 5846 5846 5844 5843 5842 5841 5841 5840 5839 5838 5837 5836 5835 5834 5833 5832 5831 5829 5827 5826 5825 5823 5821 5819 5818 5816 5814 5813 5811 5810 5809 5807 5805 5805 5802 5798 5796 5793 5793 5792 5786 5785 5788 5787 5783 5779 5777 5775 5773 5771 5769 5767 5765 5762 5760 5758 5756 5754
5839 5839 5839 5840 5840 5841 5841 5842 5842 5842 5842 5843 5842 5842 5841 5841 5841 5840 5840 5841 5842 5842 5842 5841 5841 5842 5842 5843 5843 5843 5842 5842 5841 5840 5839 5838 5837 5836 5835 5834 5833 5832 5831 5830 5829 5829 5828 5826 5824 5823 5821 5819 5818 5816 5814 5812 5811 5810 5808 5805 5805 5803 5800 5800 5798 5794 5792 5789 5789 5788 5782 5780 5783 5784 5781 5775 5773 5771 5769 5766 5764 5762 5760 5758 5755 5752 5750 5748
5834 5834 5835 5836 5836 5836 5836 5837 5837 5838 5838 5838 5838 5838 5837 5837 5836 5835 5835 5836 5838 5838 5838 5838 5838 5837 5838 5839 5839 5838 5838 5838 5837 5836 5835 5834 5833 5832 5831 5830 5829 5828 5828 5827 5825 5825 5825 5823 5820 5819 5817 5815 5814 5812 5810 5808 5807 5806 5804 5801 5800 5799 5795 5794 5793 5790 5788 5785 5783 5782 5776 5774 5777 5780 5779 5772 5769 5767 5763 5761 5760 5758 5755 5753 5750 5747 5745 5743
5830 5830 5831 5831 5831 5831 5831 5832 5832 5833 5833 5834 5833 5833 5833 5832 5832 5831 5830 5829 5831 5835 5835 5834 5834 5833 5834 5835 5836 5835 5834 5833 5833 5832 5831 5830 5830 5828 5827 5827 5825 5825 5824 5822 5821 5821 5821 5819 5816 5815 5813 5812 5810 5808 5806 5803 5803 5803 5801 5797 5795 5794 5791 5789 5786 5783 5782 5780 5778 5776 5770 5766 5769 5775 5775 5769 5766 5763 5758 5757 5756 5753 5751 5748 5745 5742 5740 5738
5826 5826 5826 5827 5826 5826 5827 5827 5828 5828 5829 5828 5828 5828 5828 5828 5827 5826 5825 5822 5824 5829 5831 5830 5829 5830 5831 5832 5832 5831 5830 5829 5829 5828 5827 5826 5825 5824 5824 5823 5821 5821 5819 5818 5816 5816 5817 5815 5812 5810 5809 5807 5806 5804 5801 5798 5798 5799 5798 5794 5791 5789 5787 5785 5782 5778 5775 5774 5773 5772 5765 5758 5758 5766 5769 5765 5762 5758 5753 5753 5751 5748 5746 5742 5740 5737 5735 5732
5821 5821 5822 5822 5822 5822 5822 5822 5823 5823 5823 5823 5823 5823 5823 5823 5822 5821 5820 5816 5815 5822 5827 5826 5825 5826 5827 5829 5828 5827 5826 5825 5824 5823 5822 5821 5820 5820 5819 5818 5817 5816 5814 5813 5811 5812 5813 5811 5808 5807 5804 5803 5802 5800 5797 5794 5793 5794 5794 5791 5787 5785 5783 5781 5778 5774 5770 5767 5767 5769 5763 5751 5748 5758 5763 5761 5758 5752 5748 5748 5746 5743 5741 5737 5735 5732 5729 5726
5816 5817 5817 5817 5818 5818 5816 5817 5819 5818 5818 5818 5818 5818 5818 5817 5817 5816 5815 5809 5806 5813 5821 5821 5821 5822 5823 5824 5824 5822 5821 5821 5819 5818 5818 5817 5816 5815 5813 5813 5812 5811 5810 5808 5806 5807 5808 5805 5804 5802 5800 5799 5798 5795 5792 5790 5788 5788 5788 5785 5783 5781 5778 5776 5773 5770 5767 5762 5762 5767 5760 5747 5742 5748 5757 5757 5753 5748 5744 5744 5742 5738 5735 5732 5730 5727 5723 5721
5810 5812 5812 5812 5813 5813 5812 5812 5813 5813 5813 5812 5813 5813 5812 5812 5812 5811 5810 5802 5796 5804 5813 5817 5818 5818 5818 5819 5818 5817 5816 5815 5814 5813 5813 5812 5811 5810 5809 5808 5807 5806 5805 5803 5801 5803 5802 5800 5799 5797 5796 5795 5793 5790 5787 5786 5784 5782 5782 5780 5778 5776 5773 5772 5768 5765 5763 5756 5757 5763 5755 5744 5737 5740 5750 5752 5746 5742 5740 5739 5736 5733 5730 5727 5724 5721 5717 5715
5805 5806 5807 5806 5807 5807 5807 5807 5808 5808 5807 5807 5808 5807 5807 5807 5806 5805 5803 5794 5790 5797 5806 5812 5814 5813 5814 5813 5812 5811 5810 5809 5808 5808 5808 5807 5805 5805 5804 5803 5802 5801 5800 5798 5797 5798 5796 5795 5794 5792 5791 5790 5787 5785 5783 5781 5779 5777 5777 5774 5773 5770 5768 5767 5763 5761 5758 5750 5753 5757 5749 5740 5733 5733 5744 5747 5740 5737 5735 5734 5731 5727 5724 5721 5718 5715 5711 5709
5799 5800 5801 5800 5800 5801 5801 5801 5802 5802 5802 5802 5802 5802 5802 5801 5800 5798 5792 5786 5788 5794 5799 5805 5808 5808 5808 5807 5806 5805 5804 5803 5803 5802 5802 5801 5800 5799 5798 5798 5797 5796 5794 5793 5792 5792 5791 5790 5789 5788 5786 5784 5782 5779 5778 5776 5774 5772 5771 5769 5767 5764 5762 5761 5757 5756 5752 5745 5748 5749 5743 5738 5728 5727 5738 5740 5735 5733 5731 5729 5726 5722 5718 5714 5711 5709 5705 5703
5793 5794 5795 5794 5794 5795 5795 5795 5796 5796 5796 5796 5796 5796 5795 5794 5793 5788 5781 5782 5789 5791 5793 5799 5801 5803 5803 5801 5800 5799 5798 5798 5797 5797 5797 5796 5794 5794 5794 5793 5792 5791 5789 5788 5787 5787 5786 5785 5784 5783 5782 5779 5776 5774 5772 5771 5769 5767 5765 5763 5761 5757 5756 5755 5752 5751 5746 5740 5742 5740 5736 5732 5723 5724 5732 5731 5729 5729 5725 5722 5720 5716 5712 5708 5705 5702 5699 5697
5787 5788 5789 5789 5789 5789 5789 5789 5790 5790 5789 5790 5790 5789 5789 5787 5781 5776 5777 5783 5786 5785 5788 5794 5794 5796 5796 5795 5795 5794 5793 5792 5792 5792 5791 5790 5789 5789 5788 5788 5787 5786 5783 5782 5782 5781 5781 5780 5779 5778 5777 5775 5771 5769 5767 5765 5763 5762 5760 5758 5754 5750 5749 5747 5746 5744 5740 5736 5735 5732 5729 5725 5719 5721 5724 5723 5723 5723 5718 5715 5712 5709 5705 5701 5699 5695 5692 5690
5780 5782 5783 5783 5783 5783 5783 5783 5784 5783 5783 5784 5782 5781 5782 5775 5767 5769 5777 5782 5782 5781 5784 5786 5787 5788 5788 5788 5788 5788 5787 5787 5787 5786 5785 5784 5783 5783 5783 5782 5782 5780 5778 5777 5775 5774 5774 5775 5774 5773 5772 5769 5766 5764 5762 5759 5758 5756 5755 5753 5748 5745 5743 5740 5740 5737 5733 5732 5728 5723 5721 5718 5714 5715 5715 5715 5718 5717 5712 5708 5704 5701 5697 5694 5692 5688 5685 5684
5773 5775 5776 5777 5777 5776 5776 5777 5777 5776 5776 5776 5775 5775 5772 5763 5759 5766 5774 5778 5779 5779 5778 5779 5780 5780 5779 5779 5780 5781 5781 5781 5781 5780 5779 5778 5777 5777 5777 5776 5776 5775 5774 5772 5769 5768 5766 5766 5768 5768 5765 5763 5762 5760 5757 5754 5752 5751 5751 5747 5743 5742 5737 5734 5735 5731 5727 5726 5721 5716 5715 5712 5710 5708 5706 5709 5713 5711 5707 5702 5697 5694 5690 5687 5684 5681 5678 5677
5766 5767 5769 5770 5769 5769 5770 5770 5769 5769 5769 5768 5769 5766 5758 5754 5757 5764 5769 5773 5775 5774 5773 5773 5773 5771 5771 5771 5772 5774 5774 5774 5774 5773 5772 5771 5771 5771 5771 5771 5771 5770 5769 5767 5765 5764 5760 5759 5761 5760 5757 5756 5755 5753 5751 5748 5747 5747 5745 5741 5738 5737 5731 5728 5729 5726 5721 5718 5715 5711 5708 5707 5705 5701 5700 5705 5706 5704 5700 5695 5690 5687 5684 5681 5677 5673 5671 5669
5758 5759 5761 5764 5762 5761 5762 5762 5762 5762 5762 5762 5760 5753 5748 5751 5757 5760 5763 5766 5768 5769 5769 5767 5765 5763 5763 5764 5766 5767 5767 5766 5766 5765 5765 5765 5765 5765 5764 5765 5766 5764 5764 5762 5760 5759 5756 5755 5755 5751 5749 5748 5746 5745 5744 5742 5742 5740 5737 5735 5732 5729 5726 5722 5719 5718 5714 5708 5708 5706 5700 5698 5699 5694 5695 5699 5699 5698 5694 5687 5683 5679 5676 5674 5669 5665 5663 5661
5750 5751 5753 5757 5755 5751 5752 5754 5754 5754 5754 5754 5749 5743 5743 5748 5752 5755 5757 5759 5762 5763 5762 5759 5758 5757 5757 5757 5758 5759 5760 5759 5759 5758 5758 5758 5757 5757 5757 5758 5759 5759 5758 5756 5754 5753 5751 5750 5749 5745 5741 5740 5738 5736 5735 5735 5736 5733 5730 5728 5725 5722 5720 5716 5710 5708 5704 5698 5698 5700 5694 5690 5690 5689 5689 5691 5691 5690 5685 5679 5675 5672 5669 5666 5661 5657 5656 5653
5743 5742 5745 5749 5747 5742 5745 5747 5745 5746 5746 5743 5738 5736 5737 5741 5746 5750 5752 5753 5755 5755 5754 5753 5752 5751 5750 5749 5750 5751 5751 5751 5751 5751 5751 5750 5748 5749 5750 5751 5752 5752 5751 5749 5747 5746 5745 5743 5743 5740 5736 5734 5731 5727 5727 5729 5728 5724 5722 5721 5719 5716 5713 5709 5704 5700 5696 5690 5688 5691 5689 5684 5683 5684 5684 5684 5684 5681 5676 5672 5668 5665 5663 5659 5654 5651 5649 5647
5734 5734 5737 5742 5739 5734 5737 5737 5736 5737 5735 5731 5731 5731 5732 5735 5739 5744 5747 5748 5747 5746 5745 5746 5746 5743 5742 5742 5743 5744 5743 5743 5744 5743 5742 5742 5740 5741 5743 5743 5744 5744 5744 5742 5739 5738 5738 5735 5735 5734 5730 5726 5723 5722 5723 5723 5719 5715 5714 5714 5714 5711 5706 5701 5698 5694 5689 5683 5678 5678 5680 5680 5679 5680 5679 5679 5678 5672 5668 5665 5661 5659 5656 5651 5647 5645 5643 5641
5726 5725 5730 5734 5729 5726 5729 5728 5727 5727 5724 5724 5726 5726 5725 5727 5732 5737 5740 5740 5739 5738 5737 5737 5737 5736 5735 5736 5736 5736 5735 5735 5736 5735 5734 5733 5732 5733 5736 5737 5736 5736 5735 5733 5731 5730 5729 5727 5727 5726 5721 5717 5716 5717 5717 5714 5710 5707 5708 5709 5708 5705 5699 5692 5689 5689 5683 5676 5669 5664 5666 5673 5677 5676 5675 5673 5669 5664 5660 5657 5655 5653 5649 5644 5641 5639 5636 5634
5717 5717 5723 5725 5718 5718 5720 5718 5719 5720 5716 5717 5719 5717 5717 5721 5725 5729 5731 5731 5731 5730 5730 5729 5729 5729 5730 5730 5729 5729 5728 5727 5728 5726 5724 5725 5725 5727 5730 5730 5728 5727 5726 5724 5723 5722 5720 5718 5717 5715 5710 5709 5710 5709 5707 5703 5702 5701 5702 5703 5701 5698 5693 5683 5679 5683 5679 5671 5663 5654 5651 5662 5672 5671 5668 5665 5661 5656 5652 5650 5648 5645 5641 5637 5634 5632 5629 5627
5708 5710 5715 5714 5709 5710 5709 5708 5711 5711 5706 5708 5711 5711 5713 5715 5718 5720 5722 5722 5721 5722 5722 5722 5723 5723 5722 5722 5722 5722 5721 5719 5719 5717 5715 5718 5721 5722 5723 5722 5720 5719 5717 5716 5715 5714 5712 5709 5706 5704 5703 5702 5700 5699 5697 5694 5694 5695 5696 5696 5693 5690 5687 5678 5671 5671 5670 5665 5658 5648 5644 5653 5663 5663 5660 5656 5652 5648 5645 5643 5640 5636 5633 5630 5627 5625 5623 5619
5700 5702 5704 5703 5699 5699 5697 5698 5702 5699 5698 5703 5706 5706 5707 5707 5709 5711 5712 5711 5711 5713 5714 5714 5715 5714 5713 5714 5714 5713 5713 5710 5709 5710 5709 5712 5715 5716 5715 5714 5712 5711 5710 5708 5708 5707 5703 5699 5697 5695 5694 5692 5690 5690 5688 5686 5687 5688 5688 5687 5683 5682 5679 5671 5663 5659 5657 5655 5650 5644 5640 5645 5654 5654 5648 5646 5642 5640 5639 5635 5631 5628 5625 5622 5620 5618 5616 5612
5692 5692 5693 5692 5689 5686 5686 5690 5693 5691 5694 5698 5697 5698 5699 5698 5700 5703 5703 5703 5704 5704 5704 5704 5705 5705 5705 5707 5706 5704 5704 5701 5701 5704 5705 5706 5708 5709 5707 5705 5705 5704 5702 5702 5700 5697 5693 5691 5690 5686 5684 5682 5681 5682 5681 5681 5681 5679 5679 5678 5676 5675 5671 5662 5657 5651 5644 5643 5644 5638 5629 5634 5647 5644 5635 5635 5634 5631 5631 5626 5622 5621 5617 5616 5614 5611 5608 5606
5680 5679 5682 5682 5677 5673 5676 5683 5685 5683 5686 5688 5686 5688 5690 5689 5693 5697 5697 5696 5695 5694 5692 5692 5694 5696 5699 5699 5696 5695 5695 5695 5695 5698 5699 5699 5698 5700 5699 5696 5697 5696 5695 5694 5691 5687 5684 5683 5682 5678 5674 5673 5673 5675 5675 5674 5672 5669 5669 5671 5668 5667 5663 5655 5649 5641 5634 5636 5638 5631 5620 5624 5638 5635 5626 5627 5625 5622 5623 5617 5613 5613 5610 5609 5608 5604 5602 5599
5667 5668 5671 5672 5666 5663 5668 5675 5674 5672 5677 5678 5675 5679 5682 5682 5688 5692 5690 5685 5683 5681 5681 5683 5686 5687 5687 5687 5686 5687 5689 5691 5690 5689 5691 5690 5688 5689 5689 5688 5688 5688 5686 5684 5680 5677 5674 5673 5673 5670 5665 5664 5666 5669 5667 5662 5661 5661 5661 5663 5660 5658 5656 5648 5637 5632 5631 5628 5624 5624 5621 5617 5624 5627 5623 5621 5617 5613 5613 5609 5606 5606 5603 5601 5600 5596 5595 5592
5655 5658 5663 5662 5656 5655 5662 5666 5663 5663 5667 5667 5665 5671 5675 5675 5678 5680 5677 5673 5672 5671 5672 5674 5676 5675 5676 5680 5680 5680 5683 5683 5680 5678 5680 5680 5680 5680 5679 5679 5679 5677 5675 5672 5668 5666 5661 5660 5663 5661 5656 5656 5659 5661 5658 5652 5653 5655 5653 5654 5652 5649 5647 5638 5628 5629 5631 5618 5608 5618 5624 5611 5608 5617 5618 5615 5610 5605 5603 5602 5599 5598 5596 5594 5593 5589 5588 5585
5645 5650 5653 5651 5645 5644 5650 5656 5656 5655 5656 5655 5655 5660 5662 5663 5665 5666 5665 5664 5663 5663 5663 5663 5666 5668 5671 5674 5671 5669 5672 5673 5669 5668 5669 5671 5671 5669 5667 5668 5667 5664 5663 5660 5657 5655 5649 5647 5654 5651 5646 5648 5651 5651 5648 5644 5644 5646 5646 5646 5643 5638 5637 5630 5623 5625 5624 5609 5601 5612 5616 5604 5601 5608 5610 5608 5602 5595 5595 5595 5592 5590 5589 5587 5584 5583 5580 5577
5637 5641 5642 5639 5635 5635 5640 5646 5647 5642 5642 5643 5643 5646 5652 5655 5656 5656 5655 5654 5652 5655 5655 5654 5659 5664 5664 5663 5660 5658 5662 5663 5659 5659 5661 5661 5661 5658 5656 5657 5656 5654 5652 5649 5647 5644 5637 5637 5645 5642 5635 5639 5643 5641 5638 5635 5633 5634 5638 5640 5634 5627 5627 5626 5620 5618 5613 5602 5599 5602 5600 5597 5601 5603 5601 5599 5594 5588 5587 5588 5585 5583 5582 5579 5577 5575 5573 5569
5629 5631 5632 5628 5624 5628 5631 5632 5631 5628 5631 5632 5629 5637 5645 5645 5646 5647 5645 5644 5646 5648 5648 5646 5652 5657 5653 5650 5648 5646 5653 5656 5651 5652 5654 5650 5649 5648 5645 5645 5647 5644 5642 5640 5638 5635 5630 5629 5635 5632 5624 5629 5636 5632 5627 5625 5623 5622 5627 5631 5628 5621 5620 5619 5614 5611 5605 5597 5594 5593 5586 5586 5597 5600 5593 5590 5587 5582 5580 5579 5578 5576 5573 5571 5569 5567 5564 5560
5622 5620 5621 5616 5613 5617 5618 5618 5619 5617 5619 5620 5621 5631 5637 5633 5639 5641 5633 5634 5639 5638 5637 5638 5644 5647 5641 5637 5637 5638 5646 5648 5643 5644 5644 5638 5637 5638 5634 5634 5636 5633 5632 5633 5630 5627 5623 5621 5625 5623 5612 5617 5628 5623 5615 5615 5613 5611 5616 5623 5624 5619 5612 5609 5607 5604 5599 5592 5588 5585 5577 5577 5588 5591 5585 5582 5579 5575 5574 5573 5570 5568 5565 5563 5561 5558 5555 5552
5612 5607 5609 5607 5601 5602 5605 5606 5606 5603 5605 5612 5616 5622 5623 5622 5631 5630 5620 5622 5631 5629 5628 5630 5633 5633 5626 5625 5630 5634 5638 5637 5632 5632 5631 5626 5625 5627 5624 5623 5625 5624 5625 5625 5621 5619 5617 5614 5616 5613 5603 5606 5615 5611 5606 5606 5600 5599 5610 5618 5618 5611 5602 5599 5601 5599 5594 5587 5580 5575 5571 5573 5579 5579 5575 5573 5571 5568 5568 5567 5563 5560 5558 5555 5552 5550 5546 5544